Home   Weather   Grand Falls-Windsor   Past weeks

Flag for Canada Past Weather in Grand Falls-Windsor, Newfoundland and Labrador, Canada — Yesterday and Last 2 Weeks

Now
21 °F

Snow flurries. Partly cloudy.


Feels Like: 9 °F
Forecast: N/A
Wind: 13 mph from North

Location: Gander Int. Airport

Current Time: Jan 22, 2017 at 7:14:18 pm

Latest Report: Jan 22, 2017 at 6:30 pm


Visibility: 10 mi

Pressure: 29.77 "Hg

Humidity: 86%

Dew Point: 18 °F

Location of Grand Falls-WindsorLocation

Past Weather in Grand Falls-Windsor — Graph

°F

Grand Falls-Windsor Temperature Yesterday

Maximum temperature yesterday: 25 °F (at 5:30 am)
Minimum temperature yesterday: 21 °F (at 11:30 pm)
Average temperature yesterday: 24 °F

High & Low Weather Summary for the Past Weeks

 TemperatureHumidityPressure
High43 °F (Jan 13, 10:18 am)100% (Jan 8, 2:45 pm)30.85 "Hg (Jan 8, 2:45 pm)
Low3 °F (Jan 14, 5:30 pm)43% (Jan 14, 2:30 pm)29.16 "Hg (Jan 8, 4:44 pm)
Average21 °F82%29.98 "Hg
* Reported Jan 7 5:30 pm — Jan 22 6:09 pm, Grand Falls-Windsor, Weather by CustomWeather, © 2017

Note: Actual official high and low records may vary slightly from our data, if they occured in-between our weather recording intervals... More about our weather records

Advertising

Grand Falls-Windsor Weather History for the Previous 24 Hours

Scroll right to see more
 ConditionsComfort  
Time TempWeatherWind HumidityBarometerVisibility
6:09 pm
Sun, Jan 22
21 °FLight snow. Overcast.15 mph93%29.76 "Hg4 mi
5:30 pm23 °FLight snow. Mostly cloudy.13 mph86%29.75 "Hg2 mi
4:40 pm23 °FLight snow. Mostly cloudy.13 mph93%29.73 "Hg1 mi
4:30 pm25 °FSnow flurries. Overcast.16 mph86%29.72 "Hg2 mi
3:30 pm27 °FSnow flurries. Broken clouds.14 mph86%29.70 "Hg2 mi
3:07 pm27 °FSnow flurries. Broken clouds.15 mph86%29.69 "Hg2 mi
2:30 pm27 °FSnow flurries. Cloudy.16 mph80%29.67 "Hg2 mi
2:10 pm27 °FSnow flurries. Cloudy.12 mph80%29.66 "Hg2 mi
1:46 pm27 °FSnow flurries. Cloudy.14 mph80%29.65 "Hg2 mi
1:30 pm27 °FSnow flurries. Partly sunny.15 mph80%29.65 "Hg10 mi
12:57 pm27 °FSnow flurries. Cloudy.9 mph93%29.64 "Hg4 mi
12:37 pm27 °FSnow flurries. Broken clouds.12 mph86%29.63 "Hg5 mi
12:18 pm25 °FSnow flurries. Mostly cloudy.10 mph93%29.64 "Hg2 mi
11:30 am23 °FSnow flurries. Mostly cloudy.15 mph93%29.64 "Hg5 mi
10:58 am23 °FSnow flurries. Mostly cloudy.16 mph86%29.64 "Hg10 mi
10:30 am21 °FSnow flurries. Broken clouds.14 mph93%29.62 "Hg5 mi
9:43 am21 °FLight mixture of precip. Ice fog.13 mph86%29.62 "Hg2 mi
9:30 am19 °FLight freezing rain. Low clouds.13 mph93%29.62 "Hg12 mi
8:54 am19 °FLow clouds.13 mph93%29.61 "Hg15 mi
8:30 am19 °FLight freezing rain. Low clouds.12 mph93%29.60 "Hg10 mi
7:30 am19 °FLight freezing rain. Low clouds.13 mph86%29.58 "Hg10 mi
7:03 am19 °FLight freezing rain. Low clouds.10 mph86%29.57 "Hg10 mi
6:30 am19 °FSnow flurries. Mostly cloudy.13 mph86%29.57 "Hg10 mi
5:30 am18 °FSnow flurries. Low clouds.17 mph93%29.55 "Hg15 mi
4:30 am19 °FSnow flurries. Low clouds.17 mph86%29.55 "Hg15 mi
4:20 am19 °FSnow flurries. Overcast.16 mph86%29.55 "Hg15 mi
3:30 am19 °FSnow flurries. Low clouds.23 mph86%29.54 "Hg15 mi
2:30 am19 °FSnow flurries. Low clouds.16 mph93%29.52 "Hg15 mi
1:30 am21 °FSnow flurries. Low clouds.21 mph86%29.50 "Hg15 mi
1:19 am21 °FSnow flurries. Low clouds.16 mph86%29.50 "Hg15 mi
12:30 am21 °FSnow flurries. Overcast.17 mph86%29.49 "Hg15 mi
12:07 am21 °FSnow flurries. Overcast.20 mph86%29.49 "Hg15 mi
11:30 pm
Sat, Jan 21
21 °FOvercast.17 mph86%29.49 "Hg15 mi
10:30 pm23 °FOvercast.22 mph80%29.48 "Hg15 mi
9:30 pm23 °FOvercast.22 mph86%29.47 "Hg15 mi
8:30 pm23 °FSnow flurries. Overcast.23 mph86%29.47 "Hg15 mi
8:02 pm23 °FLow clouds.20 mph86%29.47 "Hg10 mi
7:30 pm23 °FLight freezing rain. Low clouds.24 mph93%29.46 "Hg10 mi
7:12 pm23 °FLight freezing rain. Low clouds.24 mph93%29.46 "Hg10 mi
Weather by CustomWeather, © 2017

See weather overviewHow to use our weather pages